Location: Campbell Hill
(37.9301°N, 89.5490°W)
Time: 10:41:26
(UTC+00:00)

Helios 1A Rocket - Pass Details

Date: 07 November 2025
Orbit: 440 x 452 km, 98.3° (Epoch: 07 December)

Event Time Altitude Azimuth Distance (km) Brightness Sun altitude
Exits shadow 23:39:08 - 27° (NNE) 2,073 5.4 -9.6°
Reaches altitude 10° 23:40:26 10° 34° (NE) 1,562 4.7 -9.8°
Maximum altitude 23:43:26 31° 99° (E) 802 3.2 -10.4°
Drops below altitude 10° 23:46:26 10° 163° (SSE) 1,557 5.1 -11.0°
Sets 23:48:36 0° 174° (S) 2,426 6.2 -11.4°
